Location: Festilli
(46.4000°N, 11.6667°E)
Time: 14:53:10
(UTC+00:00)

Cosmos 2237 - Pass Details

Date: 03 March 2021
Orbit: 845 x 856 km, 70.8° (Epoch: 19 April)

Event Time Altitude Azimuth Distance (km) Brightness Sun altitude
Rises 18:06:28 0° 196° (SSW) 3,406 7.5 -11.8°
Reaches altitude 10° 18:08:55 10° 194° (SSW) 2,476 6.8 -12.3°
Maximum altitude 18:14:34 68° 113° (ESE) 919 4.2 -13.2°
Drops below altitude 10° 18:20:16 10° 31° (NNE) 2,498 6.4 -14.2°
Sets 18:22:44 0° 29° (NNE) 3,439 7.1 -14.6°
